Location: StarHub Observatory
(35.2598°N, 77.5855°W)
Time: 16:39:40
(UTC-05:00)

ISS - Visible Passes

Search period start: 01 December 2021 00:00
Search period end: 11 December 2021 00:00
Orbit: 417 x 423 km, 51.6° (Epoch: 01 December)

Date Brightness Start Highest point End Pass type
(mag) Time Alt. Az. Time Alt. Az. Time Alt. Az.
04 Dec -1.9 18:15:28 10° NNW 18:17:15 18° NNE 18:17:15 18° NNE visible
05 Dec -1.7 17:28:49 10° N 17:30:33 13° NNE 17:32:17 10° ENE visible
05 Dec -1.4 19:04:24 10° NW 19:05:33 20° NW 19:05:33 20° NW visible
06 Dec -3.5 18:17:15 10° NW 18:20:34 49° NE 18:21:05 44° ENE visible
07 Dec -2.8 17:30:14 10° NNW 17:33:16 29° NE 17:36:15 10° E visible
07 Dec -1.5 19:07:11 10° WNW 19:09:58 24° SW 19:10:04 24° SW visible
08 Dec -2.6 18:19:36 10° WNW 18:22:51 44° SW 18:26:05 10° SSE visible
09 Dec -3.7 17:32:15 10° NW 17:35:39 87° SW 17:39:01 10° SE visible
10 Dec -0.4 18:23:13 10° W 18:24:51 13° SW 18:26:29 10° SSW visible
